星链-32587 (STARLINK-32587)

导读

STARLINK-32587是美国太空探索技术公司SpaceX星链星座的成员卫星,于2024年11月30日发射,旨在为全球提供高速低延迟卫星互联网服务,覆盖偏远、网络基础设施匮乏区域。该卫星运行于近地轨道,星链系统通过大规模星座组网,可支撑流媒体点播、视频通话、在线游戏等应用,目前已成为全球规模最大的卫星互联网星座,持续推动全球互联网覆盖的普惠化。

Basic Information
目录编号:
62180
目录名称:
STARLINK-32587
国际标识:
2024-225T
轨道中心:
EARTH
卫星名称:
星链-32587
卫星全名:
星链-32587 (STARLINK-32587)
卫星状态:
在轨 (已飞行644 天)
发射日期:
2024-11-30 UTC
国别 :
美国 (US)
星等 :
--
Orbit Information
数据来源 国际轨道数据
星历时间: 2026-09-05T05:57:49+0800
11小时前
查看轨道信息
半长轴: 6950.191km
偏心率: 0.0002673
轨道倾角: 70.001°
近地点辐角 265.457°
升交点赤经 72.381°
平近点角 94.629°
近地点: 570.196km
远地点: 573.912km
周期: 96.107分钟
每日圈数: 14.983309
Detailed Information
固有亮度:
5
最大亮度:
2.5
卫星平台:
Starlink V1.0
覆盖范围:
全球
运营商:
太空探索技术公司
运营商所在国:
美国
制造商(研发单位):
太空探索技术公司
制造商所在国:
美国
使用方式:
暂无
Satellite Introduction
Starlink 计划是 SpaceX 推出的全球卫星互联网项目,通过发射低轨道卫星,为全球尤其是偏远地区提供高速、低延迟的互联网服务。自 2019 年起,Starlink 已部署数千颗卫星,旨在缩小全球数字鸿沟,推动互联网普及。该项目还为军事、航空等行业提供通信支持,带来广泛经济效益。
2D Orbit Map
3D Orbit Map
Orbit Altitude Analysis Chart
Orbit Inclination Analysis Chart
Orbit Comprehensive Analysis Chart
View Comprehensive Chart
Conjunction Data List
Event ID Objects TCA Miss Dist (km) Collision Risk Probability Collision Risk Index (CRI) Action
CDM_260907-174103-915206-218022
2026-09-07T
17:41:57+0000
1.377 km
极远距离
7.017263E-6 低风险 0.52
CDM_260905-235906-218006-678623
2026-09-05T
23:59:49+0000
2.086 km
极远距离
2.341705E-6 低风险 0.42
CDM_260907-115703-340906-218023
2026-09-07T
11:57:02+0000
2.270 km
极远距离
2.112132E-6 低风险 0.41
CDM_260830-101206-218006-431221
2026-08-30T
10:12:07+0000
2.150 km
极远距离
1.051008E-6 低风险 0.35